Location: Lancaster
(45.1330°N, 74.5000°W)
Time: 05:24:54
(UTC-04:00)

Tiangong 2 - Visible Passes

Search period start: 25 March 2019 00:00
Search period end: 04 April 2019 00:00
Orbit: 380 x 389 km, 42.8° (Epoch: 25 March)

Date Brightness Start Highest point End Pass type
(mag) Time Alt. Az. Time Alt. Az. Time Alt. Az.
30 Mar 3.1 20:22:29 10° S 20:24:12 14° SSE 20:24:26 14° SE visible
31 Mar 2.3 20:58:12 10° SW 21:00:27 28° S 21:00:27 28° S visible
01 Apr 2.6 19:59:09 10° SSW 20:01:36 21° SSE 20:04:02 10° ESE visible
01 Apr 3.1 21:34:56 10° WSW 21:36:16 22° WSW 21:36:16 22° WSW visible
02 Apr 1.6 20:35:32 10° WSW 20:38:31 40° SSE 20:39:43 27° ESE visible
03 Apr 1.3 21:12:27 10° WSW 21:15:19 54° SSW 21:15:19 54° SSW visible
